#timestamp,LO_Frequency,Hit 
1499709615.3,286047302.1,N
1499709635.1,286047302.1,N
1499709655.9,286047302.2,N
1499709675.7,286047303.3,N
1499709695.5,286047304.8,N
1499709715.4,286047305.1,N
1499709735.2,286047302.6,N
1499709755.0,286047304.4,N
1499709755.9,286047304.4,N
1499709775.8,286047306.4,N
1499709795.6,286047306.3,N
1499709815.5,286047305.6,N
1499709835.3,286047305.5,N
1499709855.1,286047307.9,N
1499709875.9,286047306.1,N
1499709895.7,286047319.1,N
1499709915.5,286047306.6,N
1499709935.4,286047305.9,N
1499709955.2,286047306.3,N
1499709975.0,286047306.5,N
1499709975.9,286047306.5,N
1499709995.8,286047306.2,N
1499710015.6,286047305.7,N
1499710035.5,286047308.0,N
1499710055.3,286047305.8,N
1499710075.1,286047308.4,N
1499710095.9,286047308.0,N
1499710115.7,286047307.2,N
1499710135.6,286047305.3,N
1499710155.4,286047306.2,N
1499710175.2,286047306.5,N
1499710195.1,286047306.0,N
1499710196.0,286047306.0,N
1499710215.8,286047306.6,N
1499710235.7,286047308.4,N
1499710255.5,286047305.4,N
1499710275.3,286047306.0,N
1499710295.2,286047305.5,N
1499710315.9,286047305.5,N
1499710335.7,286047305.8,N
1499710355.6,286047305.3,N
1499710375.4,286047308.2,N
1499710395.2,286047308.4,N
1499710415.1,286047310.0,N
1499710416.0,286047310.0,N
1499710435.8,286047305.7,N
1499710455.7,286047308.3,N
1499710475.5,286047307.6,N
1499710495.3,286047307.2,N
1499710515.2,286047307.1,N
1499710535.0,286047310.0,N
1499710535.9,286047310.0,N
1499710555.7,286047307.3,N
1499710575.6,286047307.4,N
1499710595.4,286047307.5,N
1499710615.3,286047309.7,N
1499710635.1,286047309.1,N
1499710636.0,286047309.1,N
1499710655.8,286047310.0,N
1499710675.7,286047307.7,N
1499710695.5,286047307.4,N
1499710715.3,286047307.2,N
1499710735.2,286047307.0,N
1499710755.0,286047307.8,N
1499710755.9,286047307.8,N
1499710775.8,286047307.4,N
1499710795.6,286047308.0,N
1499710815.4,286047307.3,N
1499710835.3,286047309.8,N
1499710855.1,286047309.0,Y
1499710875.9,286047011.0,N
1499710895.7,286047011.1,N
1499710915.5,286047011.5,N
1499710935.4,286047011.4,N
1499710955.2,286047011.5,N
1499710975.0,286047012.0,N
1499710975.9,286047012.0,N
1499710995.8,286047009.5,N
1499711015.6,286047009.9,N
1499711035.4,286047010.7,N
1499711055.3,286047010.2,N
1499711075.1,286047009.9,N
1499711095.9,286047009.7,N
1499711115.7,286047011.7,N
1499711135.5,286047011.1,N
1499711155.4,286047011.5,N
1499711175.2,286047012.1,N
1499711195.0,286047013.8,N
1499711196.0,286047013.8,N
1499711215.8,286047013.4,N
1499711235.6,286047013.7,N
1499711255.5,286047013.6,N
1499711275.3,286047013.3,N
1499711295.1,286047012.9,N
1499711315.9,286047015.4,N
1499711335.7,286047015.1,N
1499711355.5,286047015.1,N
1499711375.4,286047015.3,N
1499711395.2,286047014.9,N
1499711415.1,286047013.6,N
1499711416.0,286047013.6,N
1499711435.8,286047012.8,N
1499711455.6,286047011.5,N
1499711475.5,286047011.5,N
1499711495.3,286047014.7,N
1499711515.1,286047015.5,N
1499711535.9,286047012.5,N
1499711555.7,286047015.0,N
1499711575.6,286047014.5,N
1499711595.4,286047017.2,N
1499711615.2,286047014.2,N
1499711635.1,286047011.4,N
1499711636.0,286047011.4,N
1499711655.8,286047012.6,N
1499711675.6,286047013.0,N
1499711695.5,286047012.5,N
1499711715.3,286047013.0,N
1499711735.2,286047013.7,N
1499711755.9,286047014.3,N
1499711775.7,286047015.4,N
1499711795.6,286047017.1,N
1499711815.4,286047014.3,N
1499711835.2,286047014.5,N
1499711855.1,286047014.6,N
1499711856.0,286047014.6,N
1499711875.8,286047016.9,N
1499711895.7,286047018.7,N
1499711915.5,286047014.3,N
1499711935.3,286047015.5,N
1499711955.2,286047015.1,N
1499711975.0,286047012.9,N
1499711975.9,286047012.9,N
1499711995.7,286047013.3,N
1499712015.6,286047013.4,N
1499712035.4,286047013.8,N
1499712055.3,286047013.1,N
1499712075.1,286047015.1,N
1499712076.0,286047015.1,N
1499712095.8,286047012.5,N
1499712115.7,286047014.5,N
1499712135.5,286047014.6,N
1499712155.3,286047014.3,N
1499712175.2,286047014.5,N
1499712195.0,286047014.7,N
1499712195.9,286047014.7,N
1499712215.8,286047016.4,N
1499712235.6,286047017.1,N
1499712255.4,286047016.9,N
1499712275.3,286047014.1,N
1499712295.1,286047014.5,N
1499712315.8,286047016.7,N
1499712335.7,286047014.5,N
1499712355.5,286047017.1,N
1499712375.4,286047014.8,N
1499712395.2,286047016.8,N
1499712415.0,286047017.1,N
1499712415.9,286047017.1,N
1499712435.8,286047016.4,N
1499712455.6,286047016.6,N
1499712475.5,286047016.6,N
1499712495.3,286047016.5,N
1499712515.1,286047016.2,N
1499712535.9,286047018.5,N
1499712555.7,286047015.9,N
1499712575.5,286047016.3,N
1499712595.4,286047017.0,N
1499712615.2,286047014.4,N
1499712635.1,286047018.8,N
1499712636.0,286047018.8,N
1499712655.8,286047017.6,N
1499712675.6,286047018.0,N
1499712695.5,286047016.3,N
1499712715.3,286047017.1,N
1499712735.1,286047016.3,N
1499712755.9,286047018.8,N
1499712775.7,286047017.8,N
1499712795.6,286047017.7,N
1499712815.4,286047018.8,N
1499712835.2,286047020.3,N
1499712855.1,286047017.9,N
1499712856.0,286047017.9,N
1499712875.8,286047017.7,N
1499712895.6,286047017.8,N
1499712915.5,286047017.3,N
1499712935.3,286047020.0,N
1499712955.2,286047018.4,N
1499712975.9,286047018.8,N
1499712995.7,286047018.7,N
1499713015.6,286047017.4,N
1499713035.4,286047019.8,N
1499713055.2,286047019.4,N
1499713075.1,286047021.3,N
1499713076.0,286047021.3,N
1499713095.8,286047021.5,N
1499713115.7,286047021.4,N
1499713135.5,286047021.3,N
1499713155.3,286047019.2,N
1499713175.2,286047022.0,N
1499713195.0,286047019.2,N
1499713195.9,286047019.2,N
